Time,TemperatureF,DewpointF,PressureIn,WindDirection,WindDirectionDegrees,WindSpeedMPH,WindSpeedGustMPH,Humidity,HourlyPrecipIn,Conditions,Clouds,dailyrainin,SoftwareType,DateUTC
2013-04-28 00:00:00,57.9,54.4,30.11,SSW,212,3.0,13.0,88,0.00,RA,,0.00,WeatherDisplay:10.37,2013-04-28 04:00:00,
2013-04-28 00:10:00,58.2,54.3,30.11,South,183,3.0,14.0,87,0.00,BKN,,0.00,WeatherDisplay:10.37,2013-04-28 04:10:00,
2013-04-28 00:20:00,58.3,54.4,30.11,SSW,195,3.0,8.0,87,0.00,BKN,,0.00,WeatherDisplay:10.37,2013-04-28 04:20:00,
2013-04-28 00:30:00,58.2,54.7,30.12,SW,215,5.0,12.0,88,0.00,BKN,,0.00,WeatherDisplay:10.37,2013-04-28 04:30:00,
2013-04-28 00:40:00,58.1,54.6,30.12,South,178,1.0,7.0,88,0.00,OVC,,0.00,WeatherDisplay:10.37,2013-04-28 04:40:00,
2013-04-28 00:50:00,58.0,54.8,30.12,SSW,196,3.0,6.0,89,0.00,BKN,,0.00,WeatherDisplay:10.37,2013-04-28 04:50:00,
2013-04-28 01:00:00,58.0,54.8,30.12,South,177,2.0,5.0,89,0.00,BKN,,0.00,WeatherDisplay:10.37,2013-04-28 05:00:00,
2013-04-28 01:10:00,57.9,55.0,30.10,SW,214,2.0,6.0,90,0.01,RA,,0.01,WeatherDisplay:10.37,2013-04-28 05:10:00,
2013-04-28 01:20:00,57.5,55.2,30.09,SW,232,6.0,10.0,92,0.00,BKN,,0.01,WeatherDisplay:10.37,2013-04-28 05:20:00,
2013-04-28 01:30:00,57.8,55.5,30.09,SSW,203,3.0,13.0,92,0.00,BKN,,0.01,WeatherDisplay:10.37,2013-04-28 05:30:00,
2013-04-28 01:40:00,58.0,55.7,30.09,South,188,3.0,12.0,92,0.00,-RA,,0.01,WeatherDisplay:10.37,2013-04-28 05:40:00,
2013-04-28 01:50:00,58.1,55.8,30.10,South,189,5.0,12.0,92,0.00,SCT,,0.01,WeatherDisplay:10.37,2013-04-28 05:50:00,
2013-04-28 02:00:00,58.2,55.9,30.10,SSW,211,3.0,9.0,92,0.00,SCT,,0.01,WeatherDisplay:10.37,2013-04-28 06:00:00,
2013-04-28 02:10:00,58.4,55.8,30.09,SSW,207,3.0,12.0,91,0.00,BKN,,0.01,WeatherDisplay:10.37,2013-04-28 06:10:00,
2013-04-28 02:20:00,58.4,55.8,30.08,South,185,2.0,12.0,91,0.00,BKN,,0.01,WeatherDisplay:10.37,2013-04-28 06:20:00,
2013-04-28 02:30:00,58.4,55.8,30.08,SSW,203,3.0,12.0,91,0.00,BKN,,0.01,WeatherDisplay:10.37,2013-04-28 06:30:00,
2013-04-28 02:40:00,58.4,55.8,30.09,South,191,5.0,12.0,91,0.00,OVC,,0.01,WeatherDisplay:10.37,2013-04-28 06:40:00,
2013-04-28 02:50:00,58.3,55.7,30.08,SSW,203,6.0,15.0,91,0.00,OVC,,0.01,WeatherDisplay:10.37,2013-04-28 06:50:00,
2013-04-28 03:00:00,58.2,55.9,30.07,SSW,193,7.0,15.0,92,0.00,OVC,,0.01,WeatherDisplay:10.37,2013-04-28 07:00:00,
2013-04-28 03:10:00,58.1,55.8,30.07,South,186,5.0,17.0,92,0.00,OVC,,0.01,WeatherDisplay:10.37,2013-04-28 07:10:00,
2013-04-28 03:20:00,58.0,55.7,30.06,SW,215,3.0,14.0,92,0.00,OVC,,0.01,WeatherDisplay:10.37,2013-04-28 07:20:00,
2013-04-28 03:30:00,57.9,55.6,30.06,SW,231,3.0,13.0,92,0.00,OVC,,0.01,WeatherDisplay:10.37,2013-04-28 07:30:00,
2013-04-28 03:40:00,57.8,55.5,30.05,SSW,207,6.0,10.0,92,0.00,OVC,,0.01,WeatherDisplay:10.37,2013-04-28 07:40:00,
2013-04-28 03:50:00,57.9,55.6,30.05,SSW,192,1.0,12.0,92,0.00,OVC,,0.01,WeatherDisplay:10.37,2013-04-28 07:50:00,
2013-04-28 04:00:00,58.0,55.3,30.05,SSW,206,5.0,12.0,91,0.00,OVC,,0.01,WeatherDisplay:10.37,2013-04-28 08:00:00,
2013-04-28 04:10:00,58.0,55.4,30.05,SSW,212,5.0,20.0,91,0.00,OVC,,0.01,WeatherDisplay:10.37,2013-04-28 08:10:00,
2013-04-28 04:20:00,58.1,55.5,30.05,SSW,198,6.0,15.0,91,0.00,OVC,,0.01,WeatherDisplay:10.37,2013-04-28 08:20:00,
2013-04-28 04:30:00,58.1,55.5,30.05,SSW,207,6.0,14.0,91,0.00,OVC,,0.01,WeatherDisplay:10.37,2013-04-28 08:30:00,
2013-04-28 04:40:00,58.0,55.4,30.04,SSW,201,6.0,12.0,91,0.00,OVC,,0.01,WeatherDisplay:10.37,2013-04-28 08:40:00,
2013-04-28 04:50:00,57.9,55.6,30.04,SSW,204,1.0,12.0,92,0.00,OVC,,0.01,WeatherDisplay:10.37,2013-04-28 08:50:00,
2013-04-28 05:00:00,57.7,55.7,30.04,South,190,2.0,12.0,93,0.00,OVC,,0.01,WeatherDisplay:10.37,2013-04-28 09:00:00,
2013-04-28 05:10:00,57.6,55.6,30.04,SSW,209,5.0,12.0,93,0.02,RA,,0.03,WeatherDisplay:10.37,2013-04-28 09:10:00,
2013-04-28 05:20:00,57.5,55.5,30.03,SSW,206,3.0,9.0,93,0.06,RA,,0.09,WeatherDisplay:10.37,2013-04-28 09:20:00,
2013-04-28 05:30:00,57.4,55.7,30.03,SW,215,3.0,13.0,94,0.00,OVC,,0.09,WeatherDisplay:10.37,2013-04-28 09:30:00,
2013-04-28 05:40:00,57.3,55.6,30.03,SW,223,3.0,12.0,94,0.00,-RA,,0.09,WeatherDisplay:10.37,2013-04-28 09:40:00,
2013-04-28 05:50:00,57.3,55.6,30.03,SW,219,5.0,9.0,94,0.00,OVC,,0.09,WeatherDisplay:10.37,2013-04-28 09:50:00,
2013-04-28 06:00:00,57.4,55.7,30.04,SSW,205,5.0,10.0,94,0.00,OVC,,0.09,WeatherDisplay:10.37,2013-04-28 10:00:00,
2013-04-28 06:10:00,57.5,55.8,30.08,WSW,254,3.0,12.0,94,0.00,OVC,,0.09,WeatherDisplay:10.37,2013-04-28 10:10:00,
2013-04-28 06:20:00,57.9,56.2,30.09,North,3,5.0,12.0,94,0.18,RA,,0.27,WeatherDisplay:10.37,2013-04-28 10:20:00,
2013-04-28 06:30:00,57.7,55.7,30.08,SSE,159,3.0,5.0,93,0.13,RA,,0.40,WeatherDisplay:10.37,2013-04-28 10:30:00,
2013-04-28 06:40:00,57.4,55.4,30.05,ESE,108,0.0,5.0,93,0.05,RA,,0.45,WeatherDisplay:10.37,2013-04-28 10:40:00,
2013-04-28 06:50:00,57.1,55.4,30.06,SSW,209,3.0,7.0,94,0.03, +RA,,0.48,WeatherDisplay:10.37,2013-04-28 10:50:00,
2013-04-28 07:00:00,56.9,55.5,30.06,SSW,211,0.0,7.0,95,0.07, +RA,,0.55,WeatherDisplay:10.37,2013-04-28 11:00:00,
2013-04-28 07:10:00,56.9,55.5,30.07,SW,225,3.0,5.0,95,0.05,RA,,0.60,WeatherDisplay:10.37,2013-04-28 11:10:00,
2013-04-28 07:20:00,56.9,55.8,30.06,SSW,195,6.0,12.0,96,0.05,RA,,0.65,WeatherDisplay:10.37,2013-04-28 11:20:00,
2013-04-28 07:30:00,57.1,56.0,30.06,South,191,3.0,12.0,96,0.05,RA,,0.70,WeatherDisplay:10.37,2013-04-28 11:30:00,
2013-04-28 07:40:00,57.1,56.0,30.06,SSW,197,5.0,17.0,96,0.03,RA,,0.73,WeatherDisplay:10.37,2013-04-28 11:40:00,
2013-04-28 07:50:00,57.1,55.7,30.06,SSW,200,9.0,18.0,95,0.03,RA,,0.76,WeatherDisplay:10.37,2013-04-28 11:50:00,
2013-04-28 08:00:00,56.9,55.5,30.07,SSW,199,5.0,13.0,95,0.03,RA,,0.79,WeatherDisplay:10.37,2013-04-28 12:00:00,
2013-04-28 08:10:00,56.8,55.4,30.08,SW,215,3.0,12.0,95,0.03,RA,,0.82,WeatherDisplay:10.37,2013-04-28 12:10:00,
2013-04-28 08:20:00,56.7,55.3,30.08,SW,215,5.0,7.0,95,0.04,RA,,0.86,WeatherDisplay:10.37,2013-04-28 12:20:00,
2013-04-28 08:30:00,56.6,55.5,30.08,SW,221,5.0,9.0,96,0.02,RA,,0.88,WeatherDisplay:10.37,2013-04-28 12:30:00,
2013-04-28 08:40:00,56.6,55.5,30.08,SW,222,5.0,12.0,96,0.05,RA,,0.93,WeatherDisplay:10.37,2013-04-28 12:40:00,
2013-04-28 08:50:00,56.6,55.5,30.07,South,178,3.0,8.0,96,0.04,RA,,0.97,WeatherDisplay:10.37,2013-04-28 12:50:00,
2013-04-28 09:00:00,56.5,55.4,30.08,SSW,193,2.0,13.0,96,0.05,RA,,1.02,WeatherDisplay:10.37,2013-04-28 13:00:00,
2013-04-28 09:10:00,56.5,55.4,30.08,SSW,204,1.0,12.0,96,0.03,RA,,1.05,WeatherDisplay:10.37,2013-04-28 13:10:00,
2013-04-28 09:20:00,56.5,55.4,30.08,SSW,192,5.0,10.0,96,0.04,RA,,1.09,WeatherDisplay:10.37,2013-04-28 13:20:00,
2013-04-28 09:30:00,56.5,55.4,30.08,SSW,210,3.0,13.0,96,0.04,RA,,1.13,WeatherDisplay:10.37,2013-04-28 13:30:00,
2013-04-28 09:40:00,56.6,55.5,30.08,SSW,197,3.0,10.0,96,0.03,RA,,1.16,WeatherDisplay:10.37,2013-04-28 13:40:00,
2013-04-28 09:50:00,56.5,55.4,30.06,SSW,199,2.0,13.0,96,0.01,RA,,1.17,WeatherDisplay:10.37,2013-04-28 13:50:00,
2013-04-28 10:00:00,56.5,55.4,30.06,SSW,211,1.0,8.0,96,0.00,OVC,,1.17,WeatherDisplay:10.37,2013-04-28 14:00:00,
2013-04-28 10:10:00,56.6,55.5,30.08,SW,218,5.0,12.0,96,0.00,OVC,,1.17,WeatherDisplay:10.37,2013-04-28 14:10:00,
2013-04-28 10:20:00,56.7,55.6,30.07,South,179,6.0,12.0,96,0.00,OVC,,1.17,WeatherDisplay:10.37,2013-04-28 14:20:00,
2013-04-28 10:30:00,56.7,55.3,30.07,SSW,207,7.0,13.0,95,0.00,OVC,,1.17,WeatherDisplay:10.37,2013-04-28 14:30:00,
2013-04-28 10:40:00,56.7,55.3,30.06,SW,221,5.0,13.0,95,0.00,-RA,,1.17,WeatherDisplay:10.37,2013-04-28 14:40:00,
2013-04-28 10:50:00,56.6,55.2,30.06,SSW,205,7.0,12.0,95,0.02,RA,,1.19,WeatherDisplay:10.37,2013-04-28 14:50:00,
2013-04-28 11:00:00,56.6,55.2,30.06,SW,224,5.0,12.0,95,0.01,RA,,1.20,WeatherDisplay:10.37,2013-04-28 15:00:00,
2013-04-28 11:10:00,56.6,55.5,30.06,SSW,211,2.0,10.0,96,0.02,RA,,1.22,WeatherDisplay:10.37,2013-04-28 15:10:00,
2013-04-28 11:20:00,56.6,55.5,30.05,SW,220,1.0,9.0,96,0.02,-RA,,1.24,WeatherDisplay:10.37,2013-04-28 15:20:00,
2013-04-28 11:30:00,56.6,55.5,30.05,SW,216,6.0,9.0,96,0.00,-RA,,1.24,WeatherDisplay:10.37,2013-04-28 15:30:00,
2013-04-28 11:40:00,56.7,55.6,30.05,SSW,208,2.0,9.0,96,0.00,-RA,,1.24,WeatherDisplay:10.37,2013-04-28 15:40:00,
2013-04-28 11:50:00,56.7,55.6,30.05,SW,224,3.0,9.0,96,0.00,OVC,,1.24,WeatherDisplay:10.37,2013-04-28 15:50:00,
2013-04-28 12:00:00,56.9,55.8,30.05,SW,220,3.0,9.0,96,0.00,OVC,,1.24,WeatherDisplay:10.37,2013-04-28 16:00:00,
2013-04-28 12:10:00,56.9,55.5,30.04,SSW,202,5.0,12.0,95,0.00,OVC,,1.24,WeatherDisplay:10.37,2013-04-28 16:10:00,
2013-04-28 12:20:00,57.0,55.6,30.04,SSW,210,5.0,7.0,95,0.00,OVC,,1.24,WeatherDisplay:10.37,2013-04-28 16:20:00,
2013-04-28 12:30:00,57.0,55.6,30.04,South,191,5.0,8.0,95,0.00,OVC,,1.24,WeatherDisplay:10.37,2013-04-28 16:30:00,
2013-04-28 12:40:00,57.1,55.7,30.04,SW,216,2.0,10.0,95,0.00,OVC,,1.24,WeatherDisplay:10.37,2013-04-28 16:40:00,
2013-04-28 12:50:00,57.2,56.1,30.04,SW,219,1.0,10.0,96,0.00,OVC,,1.24,WeatherDisplay:10.37,2013-04-28 16:50:00,
2013-04-28 13:00:00,57.3,55.9,30.04,SSW,197,3.0,9.0,95,0.00,OVC,,1.24,WeatherDisplay:10.37,2013-04-28 17:00:00,
2013-04-28 13:10:00,57.4,56.0,30.05,SSW,198,3.0,8.0,95,0.00,-RA,,1.24,WeatherDisplay:10.37,2013-04-28 17:10:00,
2013-04-28 13:20:00,57.4,56.0,30.05,SSW,210,3.0,8.0,95,0.03,-RA,,1.27,WeatherDisplay:10.37,2013-04-28 17:20:00,
2013-04-28 13:30:00,57.3,56.2,30.05,SSW,193,2.0,7.0,96,0.03,-RA,,1.30,WeatherDisplay:10.37,2013-04-28 17:30:00,
2013-04-28 13:40:00,57.3,56.2,30.05,SW,215,1.0,5.0,96,0.03,RA,,1.33,WeatherDisplay:10.37,2013-04-28 17:40:00,
2013-04-28 13:50:00,57.3,56.2,30.05,SW,216,2.0,5.0,96,0.06,RA,,1.39,WeatherDisplay:10.37,2013-04-28 17:50:00,
2013-04-28 14:00:00,57.3,56.2,30.04,SSW,211,0.0,4.0,96,0.02,RA,,1.41,WeatherDisplay:10.37,2013-04-28 18:00:00,
2013-04-28 14:10:00,57.4,56.3,30.04,SW,217,2.0,5.0,96,0.02,RA,,1.43,WeatherDisplay:10.37,2013-04-28 18:10:00,
2013-04-28 14:20:00,57.4,56.3,30.03,SW,218,2.0,6.0,96,0.03,RA,,1.46,WeatherDisplay:10.37,2013-04-28 18:20:00,
2013-04-28 14:30:00,57.4,56.3,30.03,South,181,1.0,5.0,96,0.03,RA,,1.49,WeatherDisplay:10.37,2013-04-28 18:30:00,
2013-04-28 14:40:00,57.5,56.7,30.03,SSW,207,1.0,4.0,97,0.03,RA,,1.52,WeatherDisplay:10.37,2013-04-28 18:40:00,
2013-04-28 14:50:00,57.6,56.8,30.03,WSW,241,2.0,4.0,97,0.02,RA,,1.54,WeatherDisplay:10.37,2013-04-28 18:50:00,
2013-04-28 15:00:00,57.6,56.8,30.04,SW,225,0.0,4.0,97,0.05,RA,,1.59,WeatherDisplay:10.37,2013-04-28 19:00:00,
2013-04-28 15:10:00,57.6,56.8,30.04,SW,227,1.0,3.0,97,0.04,RA,,1.63,WeatherDisplay:10.37,2013-04-28 19:10:00,
2013-04-28 15:20:00,57.7,56.9,30.03,SW,223,0.0,3.0,97,0.02,RA,,1.65,WeatherDisplay:10.37,2013-04-28 19:20:00,
2013-04-28 15:30:00,57.7,56.9,30.03,SW,219,0.0,1.0,97,0.03,RA,,1.68,WeatherDisplay:10.37,2013-04-28 19:30:00,
2013-04-28 15:40:00,57.7,56.9,30.01,SW,219,0.0,2.0,97,0.03,RA,,1.71,WeatherDisplay:10.37,2013-04-28 19:40:00,
2013-04-28 15:50:00,57.8,57.0,30.01,SSW,208,0.0,3.0,97,0.03,-RA,,1.74,WeatherDisplay:10.37,2013-04-28 19:50:00,
2013-04-28 16:00:00,57.8,57.0,29.99,SSW,199,0.0,4.0,97,0.02,-RA,,1.77,WeatherDisplay:10.37,2013-04-28 20:00:00,
2013-04-28 16:10:00,58.0,57.2,29.99,SSW,199,0.0,1.0,97,0.02,RA,,1.78,WeatherDisplay:10.37,2013-04-28 20:10:00,
2013-04-28 16:20:00,58.2,57.3,29.99,SSW,201,3.0,6.0,97,0.01,RA,,1.79,WeatherDisplay:10.37,2013-04-28 20:20:00,
2013-04-28 16:30:00,58.2,57.4,29.99,SW,236,1.0,8.0,97,0.00,OVC,,1.79,WeatherDisplay:10.37,2013-04-28 20:30:00,
2013-04-28 16:40:00,58.2,57.4,30.00,SSW,207,3.0,9.0,97,0.01,RA,,1.80,WeatherDisplay:10.37,2013-04-28 20:40:00,
2013-04-28 16:50:00,58.4,57.5,30.01,South,189,5.0,7.0,97,0.02,-RA,,1.82,WeatherDisplay:10.37,2013-04-28 20:50:00,
2013-04-28 17:00:00,58.4,57.5,30.00,SSW,206,3.0,9.0,97,0.02,-RA,,1.84,WeatherDisplay:10.37,2013-04-28 21:00:00,
2013-04-28 17:10:00,58.4,57.6,30.00,South,186,6.0,12.0,97,0.02,-RA,,1.86,WeatherDisplay:10.37,2013-04-28 21:10:00,
2013-04-28 17:20:00,58.5,57.7,30.00,SSW,193,8.0,12.0,97,0.02,-RA,,1.88,WeatherDisplay:10.37,2013-04-28 21:20:00,
2013-04-28 17:30:00,58.6,57.8,30.01,SSW,213,6.0,15.0,97,0.02,-RA,,1.90,WeatherDisplay:10.37,2013-04-28 21:30:00,
2013-04-28 17:40:00,58.5,57.7,29.99,South,187,3.0,15.0,97,0.03,RA,,1.93,WeatherDisplay:10.37,2013-04-28 21:40:00,
2013-04-28 17:50:00,58.4,57.6,29.97,SSW,199,12.0,20.0,97,0.01,RA,,1.94,WeatherDisplay:10.37,2013-04-28 21:50:00,
2013-04-28 18:00:00,58.3,57.5,29.96,SSW,210,9.0,18.0,97,0.00,OVC,,1.94,WeatherDisplay:10.37,2013-04-28 22:00:00,
2013-04-28 18:09:00,58.4,57.6,29.97,SSW,209,3.0,17.0,97,0.00,OVC,,1.94,WeatherDisplay:10.37,2013-04-28 22:09:00,
2013-04-28 18:19:00,58.4,57.6,29.98,SW,219,2.0,12.0,97,0.00,OVC,,1.94,WeatherDisplay:10.37,2013-04-28 22:19:00,
2013-04-28 18:30:00,58.5,57.6,29.98,SW,220,6.0,13.0,97,0.00,OVC,,1.94,WeatherDisplay:10.37,2013-04-28 22:30:00,
2013-04-28 18:40:00,58.5,57.7,29.98,SSW,210,1.0,8.0,97,0.00,-RA,,1.94,WeatherDisplay:10.37,2013-04-28 22:40:00,
2013-04-28 18:50:00,58.4,57.6,29.98,SW,231,3.0,8.0,97,0.00,-DZ,,1.94,WeatherDisplay:10.37,2013-04-28 22:50:00,
2013-04-28 19:01:00,58.4,57.3,29.98,SW,234,6.0,14.0,96,0.00,-DZ,,1.94,WeatherDisplay:10.37,2013-04-28 23:01:00,
2013-04-28 19:10:00,58.4,57.3,29.98,SW,223,3.0,9.0,96,0.00,-RA,,1.94,WeatherDisplay:10.37,2013-04-28 23:10:00,
2013-04-28 19:20:00,58.4,57.3,29.97,SSW,207,5.0,10.0,96,0.00,-RA,,1.94,WeatherDisplay:10.37,2013-04-28 23:20:00,
2013-04-28 19:31:00,58.3,57.2,29.95,South,186,5.0,10.0,96,0.01,-RA,,1.95,WeatherDisplay:10.37,2013-04-28 23:31:00,
2013-04-28 19:40:00,58.3,57.2,29.99,WSW,241,6.0,12.0,96,0.00,OVC,,1.95,WeatherDisplay:10.37,2013-04-28 23:40:00,
2013-04-28 19:50:00,58.4,57.2,29.99,SW,215,3.0,12.0,96,0.00,OVC,,1.95,WeatherDisplay:10.37,2013-04-28 23:50:00,
2013-04-28 20:01:00,58.4,57.2,29.99,SW,225,2.0,6.0,96,0.00,OVC,,1.95,WeatherDisplay:10.37,2013-04-29 00:01:00,
2013-04-28 20:10:00,58.3,57.2,29.99,WSW,238,0.0,7.0,96,0.00,-RA,,1.95,WeatherDisplay:10.37,2013-04-29 00:10:00,
2013-04-28 20:20:00,58.3,57.2,29.98,WSW,238,0.0,3.0,96,0.00,-RA,,1.95,WeatherDisplay:10.37,2013-04-29 00:20:00,
2013-04-28 20:31:00,58.2,57.1,29.98,SSW,202,1.0,5.0,96,0.00,-RA,,1.95,WeatherDisplay:10.37,2013-04-29 00:31:00,
2013-04-28 20:40:00,58.2,57.1,29.99,SW,217,1.0,3.0,96,0.00,-RA,,1.95,WeatherDisplay:10.37,2013-04-29 00:40:00,
2013-04-28 20:50:00,58.2,57.1,30.00,SW,232,0.0,5.0,96,0.00,OVC,,1.95,WeatherDisplay:10.37,2013-04-29 00:50:00,
2013-04-28 21:01:00,58.2,57.1,30.00,WSW,242,0.0,1.0,96,0.00,OVC,,1.95,WeatherDisplay:10.37,2013-04-29 01:01:00,
2013-04-28 21:10:00,58.2,57.1,30.00,WSW,248,0.0,3.0,96,0.00,-RA,,1.95,WeatherDisplay:10.37,2013-04-29 01:10:00,
2013-04-28 21:20:00,58.1,57.0,29.99,SSE,152,1.0,7.0,96,0.00,-RA,,1.95,WeatherDisplay:10.37,2013-04-29 01:20:00,
2013-04-28 21:30:00,58.0,56.9,30.00,WSW,242,2.0,4.0,96,0.00,-RA,,1.95,WeatherDisplay:10.37,2013-04-29 01:30:00,
2013-04-28 21:40:00,58.0,56.8,29.99,WSW,255,0.0,2.0,96,0.00,-DZ,,1.95,WeatherDisplay:10.37,2013-04-29 01:40:00,
2013-04-28 21:50:00,57.9,56.8,30.00,WSW,255,0.0,1.0,96,0.00,OVC,,1.95,WeatherDisplay:10.37,2013-04-29 01:50:00,
2013-04-28 22:00:00,57.9,56.8,30.00,SSW,213,0.0,4.0,96,0.00,OVC,,1.95,WeatherDisplay:10.37,2013-04-29 02:00:00,
2013-04-28 22:10:00,57.9,56.8,30.00,South,182,1.0,5.0,96,0.00,OVC,,1.95,WeatherDisplay:10.37,2013-04-29 02:10:00,
2013-04-28 22:20:00,57.9,56.8,30.00,SSW,196,0.0,1.0,96,0.00,OVC,,1.95,WeatherDisplay:10.37,2013-04-29 02:20:00,
2013-04-28 22:30:00,57.9,57.0,30.00,SSW,195,0.0,1.0,97,0.00,OVC,,1.95,WeatherDisplay:10.37,2013-04-29 02:30:00,
2013-04-28 22:40:00,57.9,57.1,30.00,SSW,196,1.0,3.0,97,0.00,BKN,,1.95,WeatherDisplay:10.37,2013-04-29 02:40:00,
2013-04-28 22:50:00,57.8,57.0,29.99,SSW,196,0.0,3.0,97,0.00,SCT,,1.95,WeatherDisplay:10.37,2013-04-29 02:50:00,
2013-04-28 23:00:00,57.8,57.0,30.00,SSW,196,0.0,2.0,97,0.00,SCT,,1.95,WeatherDisplay:10.37,2013-04-29 03:00:00,
2013-04-28 23:10:00,57.8,57.0,30.00,SSW,196,0.0,2.0,97,0.00,SCT,,1.95,WeatherDisplay:10.37,2013-04-29 03:10:00,
2013-04-28 23:20:00,57.8,56.9,30.00,South,190,3.0,6.0,97,0.00,SCT,,1.95,WeatherDisplay:10.37,2013-04-29 03:20:00,
2013-04-28 23:30:00,57.8,57.0,30.00,South,190,2.0,5.0,97,0.00,SCT,,1.95,WeatherDisplay:10.37,2013-04-29 03:30:00,
2013-04-28 23:40:00,57.8,56.9,30.00,South,187,0.0,7.0,97,0.00,BKN,,1.95,WeatherDisplay:10.37,2013-04-29 03:40:00,
2013-04-28 23:50:00,57.7,56.9,30.00,SSW,201,2.0,6.0,97,0.00,OVC,,1.95,WeatherDisplay:10.37,2013-04-29 03:50:00,